DateTimeUTC,F1_A11,F1_S11,BsB_S11,BsG_S11,BsR_S11,BbsB_S11,BbsG_S11,BbsR_S11,BaB_A11,BaG_A11,BaR_A11,Tu_S11,T_S11,Uu_S11,U_S11,P_S11,T1_A11
2021-09-19T04:00:00Z,00000200,21000000,,,,,,,-001.09,-000.90,-001.03,18.0,25.4,,00.0,0656.0,31.0
2021-09-19T04:01:00Z,00000200,21000000,,,,,,,-000.23,-000.15,0000.11,18.0,25.4,,00.0,0656.0,31.0
2021-09-19T04:02:00Z,00000200,21000000,,,,,,,-000.30,0000.02,-000.05,18.0,25.4,,00.0,0656.0,31.0
2021-09-19T04:03:00Z,00000200,61000000,,,,,,,-000.19,-000.19,-000.45,18.0,25.4,,00.0,0656.0,31.0
2021-09-19T04:04:00Z,00000200,41000000,0003.00,0001.37,0001.33,0000.29,0000.25,0000.58,-000.25,-000.25,-000.01,18.4,25.3,,00.0,0656.9,31.0
2021-09-19T04:05:00Z,00000200,01000000,0002.19,0002.03,0001.08,0000.39,0000.34,0000.60,0000.57,0000.55,0000.27,18.6,25.2,,00.0,0657.0,31.1
2021-09-19T04:06:00Z,00000200,01000000,0002.47,0001.40,0000.93,0000.68,0000.40,0000.23,0000.62,0000.20,0000.24,18.6,25.3,,00.0,0657.0,31.0
2021-09-19T04:07:00Z,00000200,01000000,0002.76,0001.20,0001.11,0000.27,0000.55,0000.29,0000.77,0001.09,0000.73,18.6,25.2,,00.0,0657.0,31.1
2021-09-19T04:08:00Z,00000200,01000000,0002.57,0001.62,0001.00,0000.18,0000.43,0000.20,0000.88,0000.53,0000.54,18.5,25.2,,00.0,0657.0,31.0
2021-09-19T04:09:00Z,00000200,01000000,0002.08,0001.47,0001.18,0000.78,0000.50,0000.06,0000.56,0000.59,0000.39,18.4,25.2,,00.0,0656.9,31.0
2021-09-19T04:10:00Z,00000200,01000000,0002.03,0001.49,0000.91,0000.79,0000.27,0000.16,0000.88,0000.91,0000.80,18.4,25.1,,00.0,0656.9,31.0
2021-09-19T04:11:00Z,00000200,01000000,0003.15,0001.42,0001.04,0001.10,0000.22,0000.38,0000.13,-000.12,-000.49,18.3,25.1,,00.0,0656.9,31.0
2021-09-19T04:12:00Z,00000200,01000000,0002.14,0001.85,0001.30,0000.27,0000.28,0000.54,-000.03,-000.03,0000.27,18.2,25.0,,00.0,0656.9,31.0
2021-09-19T04:13:00Z,00000200,01000000,0001.39,0001.56,0001.23,0000.57,0000.42,0000.21,0000.11,0000.06,0000.33,18.2,25.0,,00.0,0656.9,31.0
2021-09-19T04:14:00Z,00000200,01000000,0002.66,0001.89,0001.13,0000.63,0000.06,0000.22,0000.08,0000.28,0000.02,18.1,25.0,,00.0,0656.9,31.0
2021-09-19T04:15:00Z,00000200,01000000,0002.64,0001.61,0001.13,0000.87,0000.43,0000.09,0001.06,0000.35,0000.64,18.1,24.9,,00.0,0656.9,31.0
2021-09-19T04:16:00Z,00000200,01000000,0002.64,0001.81,0001.45,0000.34,0000.22,0000.20,0000.43,0000.59,0000.31,18.1,24.9,,00.0,0656.9,31.0
2021-09-19T04:17:00Z,00000200,01000000,0002.34,0001.61,0000.90,0000.84,0000.43,0000.10,-000.12,0000.31,0000.32,18.1,24.9,,00.0,0656.9,31.0
2021-09-19T04:18:00Z,00000200,01000000,0003.06,0001.53,0000.95,0000.64,0000.21,0000.21,0001.13,0001.05,0000.76,18.2,25.0,,00.0,0656.9,31.0
2021-09-19T04:19:00Z,00000200,01000000,0002.73,0001.45,0000.89,0001.14,0000.41,0000.26,0000.94,0000.65,0000.59,18.3,25.0,,00.0,0657.0,31.0
2021-09-19T04:20:00Z,00000200,01000000,0002.27,0001.55,0000.71,0000.06,0000.46,0000.27,0000.82,0000.97,0000.47,18.4,25.1,,00.0,0656.9,31.0
2021-09-19T04:21:00Z,00000200,01000000,0002.08,0001.65,0001.32,0000.78,0000.52,0000.71,0000.74,0000.62,0000.60,18.5,25.1,,00.0,0656.9,31.0
2021-09-19T04:22:00Z,00000200,01000000,0001.92,0001.69,0001.29,0000.06,0000.50,0000.46,0000.98,0000.98,0000.84,18.6,25.2,,00.0,0656.9,31.1
2021-09-19T04:23:00Z,00000200,01000000,0002.59,0001.61,0001.06,0000.12,0000.34,0000.46,0000.82,0000.51,0000.45,18.7,25.2,,00.0,0656.9,31.1
2021-09-19T04:24:00Z,00000200,01000000,0002.04,0001.43,0000.79,0000.17,0000.56,0000.21,0000.37,0000.56,0000.47,18.7,25.3,,00.0,0656.9,31.1
2021-09-19T04:25:00Z,00000200,01000000,0002.60,0001.49,0000.91,0000.26,0000.32,0000.25,0000.94,0001.06,0000.39,18.8,25.3,,00.0,0656.9,31.1
2021-09-19T04:26:00Z,00000200,01000000,0003.09,0001.76,0001.25,0000.66,0000.37,0000.11,0000.47,0000.30,0000.30,18.7,25.3,,00.0,0656.9,31.1
2021-09-19T04:27:00Z,00000200,01000000,0002.25,0001.92,0001.03,0000.40,0000.52,0000.47,0001.21,0000.77,0000.65,18.7,25.3,,00.0,0656.9,31.0
2021-09-19T04:28:00Z,00000200,01000000,0002.82,0001.71,0001.18,-000.17,0000.22,0000.42,0000.74,0000.93,0000.86,18.6,25.2,,00.0,0656.9,31.0
2021-09-19T04:29:00Z,00000200,01000000,0002.48,0001.44,0000.94,0000.28,0000.60,0000.27,0001.35,0001.21,0000.98,18.5,25.2,,00.0,0656.9,31.0
2021-09-19T04:30:00Z,00000200,01000000,0002.00,0001.75,0001.17,0000.38,0000.47,0000.19,0001.21,0000.57,0000.48,18.5,25.1,,00.0,0656.9,31.0
2021-09-19T04:31:00Z,00000200,01000000,0002.36,0001.35,0000.68,0000.13,0000.36,0000.16,0001.33,0001.45,0000.96,18.5,25.1,,00.0,0656.9,31.0
2021-09-19T04:32:00Z,00000200,01000000,0002.10,0001.50,0001.19,0000.42,0000.10,0000.25,0000.10,0000.20,0000.33,18.5,25.1,,00.0,0656.9,31.0
2021-09-19T04:33:00Z,00000200,01000000,0002.70,0001.62,0000.87,0000.19,0000.14,0000.06,-000.23,-000.27,-000.49,18.6,25.2,,00.0,0656.9,31.0
2021-09-19T04:34:00Z,00000200,01000000,0001.99,0001.41,0000.90,-000.02,0000.20,0000.40,0000.31,0000.64,0000.59,18.7,25.2,,00.0,0656.9,31.1
2021-09-19T04:35:00Z,00000200,01000000,0002.64,0001.38,0001.18,0000.38,0000.29,0000.39,0000.98,0000.67,0000.60,18.8,25.3,,00.0,0656.9,31.1
2021-09-19T04:36:00Z,00000200,01000000,0002.91,0001.72,0001.01,0000.19,0000.38,-000.03,0000.17,0000.21,-000.14,18.8,25.3,,00.0,0656.9,31.1
2021-09-19T04:37:00Z,00000200,01000000,0002.25,0001.48,0001.14,0000.82,0000.13,0000.39,0000.65,0000.61,0000.44,18.8,25.3,,00.0,0656.9,31.1
2021-09-19T04:38:00Z,00000200,01000000,0002.80,0001.77,0001.13,0000.83,0000.24,0000.31,0000.21,-000.14,0000.13,18.8,25.3,,00.0,0656.9,31.1
2021-09-19T04:39:00Z,00000200,01000000,0002.43,0001.69,0001.14,0000.11,0000.25,0000.42,-000.39,-000.18,-000.01,18.7,25.3,,00.0,0656.9,31.0
2021-09-19T04:40:00Z,00000200,01000000,0002.92,0001.35,0001.10,0000.12,0000.18,0000.40,0000.08,0000.19,-000.22,18.6,25.2,,00.0,0656.9,31.0
2021-09-19T04:41:00Z,00000200,01000000,0002.71,0001.77,0001.21,0000.69,0000.52,0000.41,0000.55,0000.37,0000.15,18.5,25.2,,00.0,0656.9,31.0
2021-09-19T04:42:00Z,00000200,01000000,0002.50,0001.35,0001.19,0000.37,0000.16,0000.20,-000.59,-000.77,-000.56,18.5,25.1,,00.0,0656.9,31.0
2021-09-19T04:43:00Z,00000200,01000000,0002.65,0001.63,0000.87,-000.02,0000.20,-000.12,-000.67,-000.16,0000.12,18.4,25.1,,00.0,0656.9,31.0
2021-09-19T04:44:00Z,00000200,01000000,0002.42,0001.39,0000.90,0000.17,0000.32,0000.25,0000.56,0000.16,0000.11,18.3,25.1,,00.0,0656.9,31.0
2021-09-19T04:45:00Z,00000200,01000000,0001.94,0001.20,0001.15,0000.34,0000.52,0000.06,0000.67,0000.64,0000.52,18.2,25.0,,00.0,0656.8,31.0
2021-09-19T04:46:00Z,00000200,01000000,0002.79,0001.90,0001.08,0000.28,0000.34,0000.49,0000.23,0000.25,-000.04,18.3,25.0,,00.0,0656.9,31.0
2021-09-19T04:47:00Z,00000200,01000000,0002.53,0001.73,0001.00,0000.07,0000.38,0000.34,-000.50,-000.52,-000.17,18.3,25.0,,00.0,0656.9,31.0
2021-09-19T04:48:00Z,00000200,01010000,0002.40,0001.38,0001.26,0000.89,0000.37,0000.41,0000.16,0000.26,0000.46,18.4,25.1,,00.0,0656.8,31.0
2021-09-19T04:49:00Z,00000200,01010000,0002.54,0001.36,0001.01,0000.37,0000.21,-000.10,0001.01,0000.98,0000.40,18.5,25.1,,00.0,0656.8,31.0
2021-09-19T04:50:00Z,00000200,01000000,0001.43,0001.76,0001.04,0000.57,0000.30,0000.44,0000.45,0000.57,0000.43,18.6,25.2,,00.0,0656.9,31.0
2021-09-19T04:51:00Z,00000200,01000000,0001.77,0001.50,0000.86,0000.70,0000.36,0000.14,-000.34,-000.49,-000.25,18.7,25.2,,00.0,0656.9,31.1
2021-09-19T04:52:00Z,00000200,01000000,0002.60,0001.55,0001.10,0000.89,0000.48,0000.34,0000.22,0000.15,0000.21,18.7,25.3,,00.0,0656.9,31.1
2021-09-19T04:53:00Z,00000200,01000000,0001.73,0001.52,0000.71,0001.09,0000.59,0000.11,-000.26,0000.26,0000.34,18.8,25.3,,00.0,0656.9,31.1
2021-09-19T04:54:00Z,00000200,01000000,0001.90,0001.71,0000.88,0000.58,0000.20,0000.26,0000.08,-000.05,-000.37,18.8,25.3,,00.0,0656.9,31.1
2021-09-19T04:55:00Z,00000200,01000000,0002.40,0001.27,0001.14,0000.43,0000.48,0000.29,-000.23,-000.33,-000.10,18.8,25.3,,00.0,0656.9,31.1
2021-09-19T04:56:00Z,00000200,01000000,0002.54,0001.74,0000.81,0000.01,0000.11,0000.29,0000.02,0000.05,-000.23,18.6,25.2,,00.0,0656.9,31.0
2021-09-19T04:57:00Z,00000200,41000000,,,,,,,0002.08,0001.87,0001.66,18.6,25.3,,00.0,0657.0,31.0
2021-09-19T04:58:00Z,00000200,61000000,,,,,,,-000.51,-000.77,-000.67,18.1,25.3,,00.0,0656.0,31.0
2021-09-19T04:59:00Z,00000200,21000000,,,,,,,-000.06,0000.25,-000.02,18.0,25.4,,00.0,0655.9,31.0
